Flag for U.S.A. Weather past 2 weeks in Aurora, Colorado, U.S.A.

Now
69 °F

Passing clouds.


Feels Like: 69 °F
Forecast: 60 / 89 °F
Wind: 12 mph from Southwest

Location: Buckley Air Force Base

Current Time: Sep 2, 2015 at 4:43:27 AM

Latest Report: Sep 2, 2015 at 3:58 AM


Visibility: 10 mi

Pressure: 29.83 "Hg (24.62 "Hg at 1647m altitude)

Humidity: 42%

Dew point: 45 °F

Location of AuroraLocation

Historic Weather in Aurora — Graph

°F

Aurora temperature yesterday

Maximum temperature yesterday: 88 °F (at 2:58 PM)
Minimum temperature yesterday: 55 °F (at 4:58 AM)
Average temperature yesterday: 71 °F

Past Weeks' High & Low Weather Summary

 TemperatureHumidityPressure
High94 °F (Aug 25, 3:58 PM)100% (Aug 19, 1:58 AM)30.21 "Hg (Aug 19, 1:58 AM)
Low45 °F (Aug 23, 5:58 AM)11% (Aug 21, 12:58 PM)29.65 "Hg (Aug 21, 4:58 PM)
Average70 °F43%29.93 "Hg
* Reported Aug 18 2:58 AM — Sep 2 2:58 AM, Aurora, Weather by CustomWeather, © 2015

Note: Actual official high and low records may vary slightly from our data, if they occured in-between our weather recording intervals... More about our weather records

Advertising

Aurora weather history for previous 24 hours

 ConditionsComfort  
Time TempWeatherWind HumidityBarometerVisibility
2:58 AM
Wed, Sep 2
68 °FPassing clouds.9 mph44%29.84 "Hg10 mi
1:58 AM67 °FPassing clouds.13 mph46%29.87 "Hg10 mi
12:58 AM69 °FPartly cloudy.14 mph44%29.89 "Hg10 mi
11:58 PM
Tue, Sep 1
69 °FPassing clouds.13 mph43%29.87 "Hg10 mi
10:58 PM70 °FPassing clouds.15 mph42%29.89 "Hg10 mi
9:58 PM70 °FPassing clouds.14 mph42%29.90 "Hg10 mi
8:58 PM70 °FPassing clouds.8 mph42%29.90 "Hg10 mi
7:58 PM73 °FPartly sunny.12 mph34%29.89 "Hg10 mi
6:58 PM77 °FPartly sunny.13 mph31%29.89 "Hg10 mi
5:58 PM80 °FThundershowers. Broken clouds.15 mph25%29.86 "Hg10 mi
4:58 PM87 °FBroken clouds.13 mph19%29.84 "Hg10 mi
2:58 PM88 °FBroken clouds.6 mph18%29.85 "Hg10 mi
1:58 PM85 °FScattered clouds.8 mph21%29.87 "Hg10 mi
12:58 PM85 °FScattered clouds.2 mph21%29.88 "Hg10 mi
11:58 AM83 °FScattered clouds.5 mph22%29.91 "Hg10 mi
10:58 AM80 °FScattered clouds.5 mph28%29.93 "Hg10 mi
9:58 AM76 °FScattered clouds.7 mph37%29.93 "Hg10 mi
8:58 AM71 °FScattered clouds.8 mph47%29.95 "Hg10 mi
7:58 AM64 °FScattered clouds.9 mph60%29.95 "Hg10 mi
6:58 AM58 °FPassing clouds.5 mph72%29.94 "Hg10 mi
5:58 AM59 °FPassing clouds.10 mph73%29.93 "Hg10 mi
4:58 AM55 °FPassing clouds.5 mph86%29.95 "Hg10 mi
Weather by CustomWeather, © 2015

See weather overviewHow to use our weather pages